Volver al catálogo

STARLINK-34967

ActivoComunicacionesSSO
NORAD 65177·PAYLOAD·🇺🇸 United States

Lanzado Aug 14, 2025 desde Vandenberg Space Force Base

Loading…

Próximos Pases (próximas 24 horas)

TLE

ActualizadoSource: CelesTrak SupGP

Época: Sep 15, 2026, 03:55 UTC

1 65177C 25175D   26258.16368056 -.00025582  00000+0 -79389-3 0  2584
2 65177  97.2843 127.2406 0002044  90.3589  17.2776 15.33460773    17

Sigue STARLINK-34967 en tiempo real con AllMySat

Download on the App Store